[[{"header":{"parameterUnit":"m.s-1","parameterCategory":1,"la1":30.2991,"la2":30.254,"lo1":-89.0895,"lo2":-89.0444,"dx":0.0017,"dy":0.0017,"nx":28,"ny":28,"refTime":"2022-12-05T15:00:00:Z","depth":0,"parameterNumber":2,"parameterNumberName":"U-component_of_WINDS"},"data":[0,0,0,0,0,0,0,0,0,0,0,0,0,0,0,0,0,0,0,0,0,0,0,0,0,0,0,0,0,0,0,0,0,0,0,0,0,0,0,0,0,0,0,0,0,0,0,0,0,0,0,0,0,0,0,0,0,0,-0.7783,-0.7782,0,-0.7695,-0.7694,-0.7693,-0.7653,-0.7653,-0.7653,-0.7653,-0.7563,-0.756,-0.7558,0,0,0,0,0,0,0,0,0,0,0,0,0,-0.7912,-0.791,-0.7783,-0.7782,-0.778,-0.7696,-0.7694,-0.7693,-0.7653,-0.7653,-0.7653,-0.7653,-0.7564,-0.7561,-0.7558,0,0,0,0,0,0,0,0,0,0,0,0,0,-0.7844,-0.791,-0.7783,-0.775,-0.7746,-0.7696,-0.7694,-0.7693,-0.7653,-0.7653,-0.7653,-0.7653,-0.7565,-0.7561,-0.7557,-0.7533,0,0,-0.7546,-0.7544,0,0,0,0,0,0,0,0,-0.7848,-0.7839,-0.7756,-0.7752,-0.7748,-0.7685,-0.7707,-0.7639,-0.7653,-0.7688,-0.7653,-0.7653,-0.7603,-0.7597,-0.758,-0.7528,-0.7524,-0.7546,-0.7544,-0.7542,-0.7541,0,0,0,0,0,0,0,-0.7852,-0.7843,-0.7748,-0.7755,-0.775,-0.7739,-0.773,-0.7694,-0.7646,-0.7685,-0.7682,-0.7672,-0.7601,-0.7584,-0.7578,-0.7523,-0.7546,-0.7543,-0.754,-0.7539,-0.7445,-0.7445,0,0,0,0,0,0,-0.7863,-0.7847,-0.7751,-0.7745,-0.7799,-0.7737,-0.7726,-0.7705,-0.7647,-0.7638,-0.7672,-0.7671,-0.759,-0.7582,-0.7574,-0.754,-0.7542,-0.7538,-0.7536,-0.7445,-0.7445,-0.7445,0,0,0,0,0,0,-0.7866,-0.7855,-0.7754,-0.7795,-0.7782,-0.7735,-0.7711,-0.7703,-0.7686,-0.7637,-0.7628,-0.7663,-0.759,-0.7579,-0.7543,-0.7536,-0.7537,-0.7533,-0.7446,-0.7445,-0.7445,-0.7472,0,0,0,0,0,0,-0.787,-0.7856,-0.7846,-0.7795,-0.778,-0.7725,-0.7711,-0.7702,-0.768,-0.7677,-0.7626,-0.7618,-0.7589,-0.7549,-0.7539,-0.7531,-0.7531,-0.7446,-0.7445,-0.7445,-0.7472,-0.7473,-0.7474,0,0,0,0,0,-0.7874,-0.7858,-0.7846,-0.7835,-0.7767,-0.7725,-0.7716,-0.7683,-0.7679,-0.7669,-0.7637,-0.7619,-0.7539,-0.7545,-0.7534,-0.7525,-0.7446,-0.7446,-0.7445,-0.7471,-0.7473,-0.7474,0,0,0,0,0,0,-0.7909,-0.7851,-0.7837,-0.7804,-0.777,-0.7718,-0.7704,-0.7686,-0.7652,-0.7651,-0.7612,-0.7601,-0.7568,-0.7543,-0.7551,-0.7497,-0.7491,-0.7488,-0.7515,-0.7516,-0.7517,-0.7523,-0.7527,0,0,0,0,0,-0.7913,-0.7884,-0.7834,-0.781,-0.7793,-0.7752,-0.7732,-0.771,-0.7673,-0.7659,-0.7624,-0.7589,-0.7555,-0.7534,-0.7501,-0.7468,-0.7456,-0.7457,-0.7458,-0.7459,-0.7457,-0.7436,-0.7435,-0.7443,-0.7443,-0.7443,0,0,-0.7921,-0.7885,-0.7869,-0.7816,-0.7787,-0.7757,-0.774,-0.771,-0.7687,-0.7654,-0.7617,-0.7591,-0.7549,-0.7514,-0.7497,-0.7492,-0.7452,-0.7458,-0.7459,-0.7456,-0.7435,-0.7435,-0.7434,-0.7442,-0.7442,-0.7442,0,0,-0.7919,-0.789,-0.7865,-0.7836,-0.7793,-0.7765,-0.7759,-0.771,-0.7692,-0.7654,-0.7628,-0.7601,-0.7544,-0.7515,-0.7493,-0.7479,-0.7461,-0.7469,-0.7474,-0.7455,-0.7454,-0.7454,-0.7448,-0.7446,-0.7467,-0.7467,-0.7467,0,-0.7934,-0.7889,-0.7855,-0.7826,-0.7802,-0.7771,-0.7745,-0.7719,-0.7667,-0.7651,-0.7647,-0.7575,-0.7544,-0.7501,-0.7498,-0.7481,-0.7472,-0.7474,-0.7457,-0.7456,-0.7455,-0.7449,-0.7447,-0.7469,-0.7468,-0.7468,-0.7468,0,-0.7908,-0.7877,-0.7863,-0.7813,-0.7788,-0.7761,-0.7722,-0.7701,-0.7681,-0.7654,-0.7615,-0.7577,-0.7535,-0.7523,-0.7504,-0.7477,-0.7476,-0.7465,-0.7458,-0.7456,-0.745,-0.7447,-0.747,-0.747,-0.747,-0.7469,0,0,-0.7926,-0.7858,-0.7853,-0.7829,-0.7778,-0.7753,-0.7724,-0.7683,-0.7665,-0.763,-0.7604,-0.7557,-0.7546,-0.7521,-0.7497,-0.7481,-0.7471,-0.7472,-0.747,-0.7472,-0.7438,-0.7446,-0.7444,-0.7459,-0.7458,-0.7458,-0.7441,0,-0.7917,-0.7864,-0.7832,-0.7791,-0.7762,-0.7731,-0.7706,-0.7671,-0.7645,-0.7615,-0.7586,-0.7552,-0.7542,-0.7526,-0.7508,-0.7476,-0.7463,-0.7477,-0.7433,-0.7432,-0.7444,-0.744,-0.7449,-0.7435,-0.7439,-0.7438,-0.7438,0,-0.7899,-0.7864,-0.7821,-0.7772,-0.7758,-0.7736,-0.7695,-0.7668,-0.7628,-0.761,-0.7581,-0.7557,-0.7525,-0.752,-0.7474,-0.7484,-0.7464,-0.7446,-0.7444,-0.7438,-0.7434,-0.7433,-0.743,-0.7428,-0.7434,-0.7434,-0.7434,0,-0.7915,-0.7858,-0.7824,-0.7805,-0.7747,-0.7732,-0.7708,-0.7668,-0.7645,-0.7609,-0.7593,-0.7555,-0.7533,-0.7503,-0.7469,-0.7469,-0.7426,-0.7419,-0.7409,-0.741,-0.74,-0.7401,-0.7393,-0.7389,-0.7389,-0.7389,-0.739,0,-0.7907,-0.7882,-0.783,-0.7809,-0.7779,-0.7742,-0.7713,-0.7686,-0.7651,-0.7624,-0.7595,-0.757,-0.7527,-0.7497,-0.747,-0.7435,-0.7426,-0.7409,-0.7402,-0.7411,-0.7413,-0.7397,-0.7397,-0.7389,-0.7389,-0.7389,-0.7389,0,-0.792,-0.7885,-0.7845,-0.7794,-0.7781,-0.7761,-0.7717,-0.7695,-0.7667,-0.7633,-0.7622,-0.7578,-0.754,-0.7504,-0.7454,-0.7435,-0.74,-0.7392,-0.7414,-0.741,-0.7401,-0.7402,-0.7382,-0.7376,-0.7378,-0.7378,-0.7378,0,-0.7917,-0.7897,-0.7843,-0.7823,-0.7799,-0.7767,-0.7743,-0.7706,-0.7682,-0.7635,-0.7618,-0.7579,-0.7545,-0.7486,-0.7449,-0.741,-0.7399,-0.7395,-0.7393,-0.7403,-0.7398,-0.7399,-0.7396,-0.7396,-0.7396,-0.7396,-0.7396,0,-0.7915,-0.7899,-0.7865,-0.7826,-0.7798,-0.7765,-0.7731,-0.7716,-0.7673,-0.7647,-0.7608,-0.7582,-0.753,-0.7491,-0.7448,-0.7421,-0.7401,-0.7397,-0.7392,-0.7401,-0.7414,-0.7405,-0.7415,-0.7397,-0.7397,-0.7397,-0.7397,-0.7397,-0.7919,-0.7899,-0.7858,-0.7822,-0.7792,-0.7761,-0.7737,-0.7706,-0.7673,-0.7628,-0.7608,-0.7569,-0.7528,-0.7468,-0.7442,-0.741,-0.7405,-0.7399,-0.7397,-0.7396,-0.7397,-0.742,-0.7402,-0.7402,-0.7402,-0.7402,-0.7402,0,-0.7915,-0.7887,-0.7854,-0.7807,-0.7778,-0.7762,-0.7723,-0.77,-0.7666,-0.763,-0.7597,-0.7552,-0.7513,-0.7473,-0.7432,-0.7414,-0.7403,-0.7404,-0.7405,-0.7399,-0.7405,-0.7412,-0.7413,-0.7413,-0.7413,-0.7413,-0.7413,-0.7413,-0.7909,-0.7874,-0.7852,-0.7801,-0.7773,-0.7734,-0.7713,-0.7684,-0.7655,-0.7606,-0.7573,-0.7548,-0.7509,-0.7465,-0.7429,-0.7418,-0.7403,-0.7407,-0.7393,-0.7399,-0.7399,-0.7398,-0.7405,-0.7404,-0.7404,-0.739,-0.739,-0.7389]},{"header":{"parameterUnit":"m.s-1","parameterCategory":1,"la1":30.2991,"la2":30.254,"lo1":-89.0895,"lo2":-89.0444,"dx":0.0017,"dy":0.0017,"nx":28,"ny":28,"refTime":"2022-12-05T15:00:00:Z","depth":0,"parameterNumber":3,"parameterNumberName":"V-component_of_WINDS"},"data":[0,0,0,0,0,0,0,0,0,0,0,0,0,0,0,0,0,0,0,0,0,0,0,0,0,0,0,0,0,0,0,0,0,0,0,0,0,0,0,0,0,0,0,0,0,0,0,0,0,0,0,0,0,0,0,0,0,0,2.6553,2.6554,0,2.6584,2.6584,2.6585,2.6569,2.6568,2.6567,2.6566,2.6596,2.6598,2.6599,0,0,0,0,0,0,0,0,0,0,0,0,0,2.648,2.6482,2.6553,2.6554,2.6554,2.6584,2.6584,2.6585,2.6569,2.6568,2.6567,2.6566,2.6596,2.6598,2.6599,0,0,0,0,0,0,0,0,0,0,0,0,0,2.6512,2.6482,2.6553,2.655,2.655,2.6584,2.6584,2.6585,2.6569,2.6568,2.6566,2.6565,2.6595,2.6597,2.66,2.6638,0,0,2.6607,2.6608,0,0,0,0,0,0,0,0,2.651,2.6514,2.655,2.655,2.655,2.6571,2.657,2.6603,2.6569,2.6562,2.6566,2.6565,2.6589,2.6592,2.66,2.664,2.6641,2.6607,2.6608,2.6609,2.661,0,0,0,0,0,0,0,2.6508,2.6513,2.6565,2.655,2.655,2.6546,2.6549,2.6576,2.6582,2.6562,2.6561,2.6565,2.6589,2.6598,2.66,2.6642,2.6607,2.6609,2.661,2.6611,2.6717,2.6718,0,0,0,0,0,0,2.6506,2.6511,2.6564,2.6566,2.6527,2.6549,2.6552,2.6566,2.6581,2.6582,2.6566,2.6564,2.6594,2.6598,2.6601,2.665,2.6609,2.6612,2.6613,2.6715,2.6717,2.6719,0,0,0,0,0,0,2.6504,2.6511,2.6563,2.6538,2.6545,2.6551,2.6566,2.6567,2.6576,2.6584,2.6585,2.6574,2.6593,2.6598,2.663,2.665,2.6613,2.6615,2.6714,2.6716,2.6718,2.6745,0,0,0,0,0,0,2.6502,2.651,2.6525,2.6539,2.6546,2.6591,2.6568,2.6568,2.658,2.6578,2.6592,2.6593,2.6593,2.6627,2.6632,2.6653,2.6617,2.6712,2.6715,2.6717,2.6742,2.6748,2.6753,0,0,0,0,0,2.65,2.6531,2.6526,2.6533,2.6565,2.6592,2.6597,2.6596,2.6582,2.6597,2.6603,2.6593,2.6647,2.663,2.6636,2.6658,2.6711,2.6714,2.6717,2.674,2.6747,2.6752,0,0,0,0,0,0,2.6519,2.6533,2.6527,2.6564,2.6577,2.659,2.6609,2.6602,2.662,2.6617,2.6615,2.6618,2.6651,2.6657,2.6638,2.6697,2.6677,2.6681,2.6692,2.6699,2.6703,2.6702,2.6619,0,0,0,0,0,2.6527,2.6549,2.6559,2.6591,2.6598,2.6602,2.6614,2.6612,2.6626,2.6631,2.6639,2.6652,2.6672,2.6685,2.6704,2.6743,2.6746,2.6761,2.6766,2.677,2.6774,2.6797,2.6804,2.6729,2.6729,2.6729,0,0,2.6545,2.6555,2.6569,2.6595,2.6605,2.6628,2.6607,2.6631,2.6648,2.6635,2.6666,2.6672,2.6686,2.6722,2.6738,2.6728,2.6796,2.6774,2.6777,2.6779,2.6801,2.6808,2.6814,2.6731,2.6731,2.673,0,0,2.659,2.6599,2.6627,2.6638,2.6653,2.6656,2.6663,2.6677,2.6681,2.6712,2.6703,2.6722,2.6756,2.6768,2.6778,2.6828,2.682,2.6833,2.686,2.6882,2.6888,2.6894,2.6913,2.692,2.6837,2.6838,2.6838,0,2.661,2.6643,2.6642,2.6668,2.668,2.6669,2.6698,2.6708,2.6729,2.6738,2.6726,2.677,2.6779,2.6818,2.6831,2.6838,2.6847,2.6833,2.6888,2.6893,2.6898,2.6916,2.6923,2.6839,2.6839,2.6839,2.6839,0,2.6668,2.6692,2.6712,2.6734,2.6748,2.6775,2.6778,2.6792,2.679,2.6794,2.6826,2.6836,2.6858,2.6867,2.6864,2.6906,2.69,2.6888,2.6868,2.6907,2.6924,2.6931,2.6842,2.6841,2.6841,2.684,0,0,2.6726,2.6747,2.6755,2.6765,2.6782,2.68,2.6827,2.6849,2.6862,2.6876,2.6899,2.6929,2.6919,2.693,2.6928,2.6947,2.6988,2.6934,2.6934,2.6945,2.7037,2.7048,2.7056,2.6983,2.6984,2.6985,2.7037,0,2.6773,2.682,2.682,2.6864,2.6886,2.6877,2.69,2.6913,2.6918,2.6938,2.6942,2.6964,2.6948,2.6955,2.6973,2.6979,2.7007,2.6975,2.7005,2.7006,2.7003,2.7064,2.7075,2.7123,2.7043,2.7045,2.7045,0,2.6834,2.6852,2.6899,2.6914,2.6923,2.6944,2.6965,2.6983,2.6998,2.7,2.7014,2.7009,2.7036,2.7014,2.7053,2.7031,2.7043,2.7048,2.705,2.7054,2.7029,2.7072,2.7139,2.7147,2.7056,2.7055,2.7054,0,2.6874,2.691,2.6943,2.6951,2.6969,2.6985,2.6993,2.7006,2.702,2.7037,2.7046,2.7066,2.7078,2.7094,2.7095,2.7078,2.7134,2.7111,2.7137,2.7137,2.7151,2.715,2.7222,2.7155,2.7155,2.7155,2.7155,0,2.6928,2.6957,2.6961,2.6982,2.7014,2.7013,2.7046,2.7052,2.7064,2.7086,2.7078,2.7099,2.7098,2.7119,2.712,2.7152,2.7157,2.716,2.716,2.7162,2.7162,2.7171,2.7168,2.7157,2.7157,2.7156,2.7156,0,2.6978,2.6982,2.7018,2.7032,2.7036,2.706,2.7072,2.7092,2.7095,2.7123,2.713,2.7136,2.716,2.7162,2.719,2.719,2.7231,2.7226,2.7226,2.7226,2.7252,2.7251,2.7334,2.7346,2.727,2.727,2.7271,0,2.7013,2.7036,2.7053,2.7067,2.7077,2.7099,2.7113,2.7113,2.7128,2.7147,2.7165,2.7188,2.7208,2.7247,2.7254,2.7275,2.7272,2.73,2.7275,2.7277,2.7275,2.7274,2.7277,2.7305,2.7306,2.7307,2.7307,0,2.7075,2.7076,2.7097,2.7119,2.7137,2.7154,2.7169,2.7181,2.7183,2.7201,2.7226,2.7241,2.727,2.7294,2.7315,2.7323,2.7316,2.7315,2.7322,2.7325,2.7325,2.7327,2.7241,2.7313,2.7313,2.7312,2.7312,2.7312,2.7121,2.7141,2.7157,2.718,2.7193,2.7208,2.7228,2.7234,2.7255,2.728,2.7278,2.7306,2.7321,2.7349,2.7359,2.7381,2.7372,2.7382,2.7385,2.7388,2.7392,2.732,2.7384,2.7384,2.7384,2.7384,2.7384,0,2.7184,2.7194,2.7216,2.7239,2.7258,2.725,2.7267,2.7284,2.7309,2.7323,2.7342,2.7372,2.7395,2.7404,2.7427,2.7443,2.7441,2.745,2.7449,2.7452,2.7398,2.739,2.7451,2.7451,2.7451,2.7451,2.7451,2.7451,2.722,2.7254,2.7257,2.7298,2.7307,2.7335,2.7346,2.736,2.7372,2.7406,2.7426,2.7431,2.7444,2.7468,2.7489,2.7491,2.7501,2.7511,2.7512,2.7462,2.7455,2.7449,2.7442,2.7513,2.7513,2.7565,2.7565,2.7565]}]]